Weather History for K5H4 - January, 2013

Change the Weather History Date:

Wednesday, January 9, 2013

  Actual Average (KRUG) Record (KRUG)
Temperature  
Mean Temperature 21 °F -  
Max Temperature 32 °F 10 °F 44 °F (2012)
Min Temperature 10 °F -9 °F -34 °F (1989)
Degree Days  
Heating Degree Days 44    
Moisture  
Dew Point 18 °F    
Average Humidity 81    
Maximum Humidity 93    
Minimum Humidity 64    
Precipitation  
Precipitation 0.00 in - - ()
Sea Level Pressure  
Sea Level Pressure 29.97 in    
Wind  
Wind Speed 14 mph (SSW)    
Max Wind Speed 28 mph    
Max Gust Speed 37 mph    
Visibility 10 miles    
Events      
Averages and records for this station are not official NWS values.
T = Trace of Precipitation, MM = Missing Value Source: NWS Daily Summary

Daily Weather History Graph

Daily Weather History Graph

Search for Another Location

Airport or City:

Trip Planner

Search our weather history database for the weather conditions in past years. The results will help you decide how hot, cold, wet, or windy it might be!

Date:

Astronomy

Jan. 09, 2013 Rise Set
Actual Time 8:26 AM CST 5:07 PM CST
Civil Twilight 7:51 AM CST 5:42 PM CST
Nautical Twilight 7:12 AM CST 6:21 PM CST
Astronomical Twilight 6:35 AM CST 6:58 PM CST
Moon 6:08 AM CST (1/9) 3:10 PM CST (1/9)
Length of Visible Light 9h 51m
Length of Day
8h 40m
Waning Crescent, 6% of the Moon is Illuminated
Jan 9
Waning Crescent
Jan 11
New
Jan 18
First Quarter
Jan 26
Full
Feb 3
Last Quarter

Hourly Weather History & Observations

Time (CST) Temp. Windchill Dew Point Humidity Pressure Visibility Wind Dir Wind Speed Gust Speed Precip Events Conditions
12:15 AM 24.8 °F 11.9 °F 19.4 °F 80% 29.83 in 10.0 mi West 16.1 mph 28.8 mph N/A   Clear
12:35 AM 24.8 °F 10.0 °F 19.4 °F 80% 29.84 in 10.0 mi West 21.9 mph 28.8 mph N/A   Clear
12:55 AM 24.8 °F 8.4 °F 19.4 °F 80% 29.84 in 10.0 mi WNW 27.6 mph 36.8 mph N/A   Clear
1:15 AM 23.0 °F 8.0 °F 17.6 °F 80% 29.86 in 10.0 mi West 20.7 mph 27.6 mph N/A   Clear
1:35 AM 23.0 °F 8.3 °F 17.6 °F 80% 29.88 in 10.0 mi WNW 19.6 mph 28.8 mph N/A   Clear
1:55 AM 23.0 °F 8.7 °F 17.6 °F 80% 29.90 in 10.0 mi West 18.4 mph 24.2 mph N/A   Mostly Cloudy
2:15 AM 23.0 °F 8.3 °F 17.6 °F 80% 29.92 in 10.0 mi West 19.6 mph - N/A   Overcast
2:35 AM 23.0 °F 8.3 °F 17.6 °F 80% 29.91 in 10.0 mi WNW 19.6 mph 28.8 mph N/A   Mostly Cloudy
2:55 AM 23.0 °F 6.3 °F 17.6 °F 80% 29.93 in 10.0 mi WNW 26.5 mph 33.4 mph N/A   Overcast
3:15 AM 23.0 °F 8.3 °F 17.6 °F 80% 29.94 in 10.0 mi WNW 19.6 mph 26.5 mph N/A   Overcast
3:35 AM 23.0 °F 8.3 °F 17.6 °F 80% 29.96 in 10.0 mi West 19.6 mph 27.6 mph N/A   Overcast
3:55 AM 19.4 °F 4.5 °F 15.8 °F 86% 29.98 in 10.0 mi West 17.3 mph 26.5 mph N/A   Scattered Clouds
4:15 AM 19.4 °F 5.5 °F 15.8 °F 86% 29.98 in 10.0 mi West 15.0 mph 21.9 mph N/A   Clear
4:35 AM 19.4 °F 5.5 °F 15.8 °F 86% 29.98 in 10.0 mi WNW 15.0 mph 23.0 mph N/A   Clear
4:55 AM 19.4 °F 5.0 °F 15.8 °F 86% 29.99 in 10.0 mi West 16.1 mph 21.9 mph N/A   Clear
5:15 AM 17.6 °F 4.3 °F 15.8 °F 93% 30.00 in 10.0 mi West 12.7 mph - N/A   Clear
5:35 AM 17.6 °F 4.3 °F 14.0 °F 86% 30.01 in 10.0 mi West 12.7 mph - N/A   Clear
5:55 AM 15.8 °F 2.1 °F 14.0 °F 93% 30.02 in 10.0 mi West 12.7 mph - N/A   Partly Cloudy
6:15 AM 15.8 °F 2.7 °F 14.0 °F 93% 30.03 in 10.0 mi West 11.5 mph - N/A   Clear
6:35 AM 14.0 °F 1.2 °F 10.4 °F 86% 30.03 in 10.0 mi WSW 10.4 mph - N/A   Clear
6:55 AM 14.0 °F 0.5 °F 10.4 °F 86% 30.04 in 10.0 mi WSW 11.5 mph - N/A   Clear
7:15 AM 12.2 °F -1.0 °F 10.4 °F 92% 30.05 in 10.0 mi WSW 10.4 mph - N/A   Clear
7:35 AM 14.0 °F -0.2 °F 10.4 °F 86% 30.06 in 10.0 mi West 12.7 mph - N/A   Clear
7:55 AM 12.2 °F -1.8 °F 10.4 °F 92% 30.07 in 10.0 mi West 11.5 mph - N/A   Clear
8:15 AM 14.0 °F 1.2 °F 10.4 °F 86% 30.07 in 10.0 mi West 10.4 mph - N/A   Clear
8:35 AM 12.2 °F 1.7 °F 10.4 °F 92% 30.08 in 10.0 mi West 6.9 mph - N/A   Clear
8:55 AM 12.2 °F 2.9 °F 8.6 °F 85% 30.09 in 10.0 mi WSW 5.8 mph - N/A   Clear
9:15 AM 10.4 °F -2.4 °F 6.8 °F 85% 30.09 in 10.0 mi SW 9.2 mph - N/A   Clear
9:35 AM 14.0 °F 6.5 °F 8.6 °F 79% 30.08 in 10.0 mi SW 4.6 mph - N/A   Clear
9:55 AM 15.8 °F 10.2 °F 8.6 °F 73% 30.08 in 10.0 mi SSW 3.5 mph - N/A   Clear
10:15 AM 15.8 °F - 10.4 °F 79% 30.09 in 10.0 mi Calm Calm - N/A   Partly Cloudy
10:35 AM 17.6 °F 10.7 °F 12.2 °F 79% 30.09 in 10.0 mi South 4.6 mph - N/A   Scattered Clouds
10:55 AM 19.4 °F 14.3 °F 14.0 °F 80% 30.08 in 10.0 mi South 3.5 mph - N/A   Mostly Cloudy
11:15 AM 19.4 °F 14.3 °F 14.0 °F 80% 30.07 in 10.0 mi South 3.5 mph - N/A   Overcast
11:35 AM 21.2 °F 14.9 °F 15.8 °F 80% 30.06 in 10.0 mi South 4.6 mph - N/A   Overcast
11:55 AM 23.0 °F 14.7 °F 17.6 °F 80% 30.06 in 10.0 mi South 6.9 mph - N/A   Overcast
12:15 PM 24.8 °F 16.9 °F 17.6 °F 74% 30.06 in 10.0 mi South 6.9 mph - N/A   Overcast
12:35 PM 24.8 °F 16.9 °F 19.4 °F 80% 30.07 in 10.0 mi South 6.9 mph - N/A   Mostly Cloudy
12:55 PM 24.8 °F 15.3 °F 19.4 °F 80% 30.06 in 10.0 mi South 9.2 mph - N/A   Partly Cloudy
1:15 PM 26.6 °F 19.1 °F 19.4 °F 74% 30.05 in 10.0 mi SSE 6.9 mph - N/A   Partly Cloudy
1:35 PM 26.6 °F 19.1 °F 19.4 °F 74% 30.05 in 10.0 mi SSE 6.9 mph - N/A   Clear
1:55 PM 28.4 °F 19.7 °F 21.2 °F 74% 30.04 in 10.0 mi SSE 9.2 mph - N/A   Clear
2:15 PM 26.6 °F 16.8 °F 21.2 °F 80% 30.04 in 10.0 mi SSE 10.4 mph - N/A   Clear
2:35 PM 26.6 °F 16.8 °F 19.4 °F 74% 30.03 in 10.0 mi SSE 10.4 mph - N/A   Clear
2:55 PM 26.6 °F 16.2 °F 19.4 °F 74% 30.02 in 10.0 mi SSE 11.5 mph - N/A   Clear
3:15 PM 26.6 °F 15.2 °F 19.4 °F 74% 30.01 in 10.0 mi SSE 13.8 mph 18.4 mph N/A   Clear
3:35 PM 26.6 °F 15.2 °F 21.2 °F 80% 30.00 in 10.0 mi SSE 13.8 mph - N/A   Clear
3:55 PM 28.4 °F 18.5 °F 21.2 °F 74% 30.00 in 10.0 mi SSE 11.5 mph - N/A   Clear
4:15 PM 28.4 °F 19.1 °F 19.4 °F 69% 29.99 in 10.0 mi SE 10.4 mph - N/A   Clear
4:35 PM 28.4 °F 18.5 °F 19.4 °F 69% 29.98 in 10.0 mi SSE 11.5 mph - N/A   Clear
4:55 PM 30.2 °F 20.2 °F 19.4 °F 64% 29.97 in 10.0 mi South 12.7 mph - N/A   Clear
5:15 PM 30.2 °F 18.9 °F 21.2 °F 69% 29.96 in 10.0 mi South 16.1 mph 20.7 mph N/A   Clear
5:35 PM 30.2 °F 20.2 °F 21.2 °F 69% 29.96 in 10.0 mi SSE 12.7 mph - N/A   Clear
5:55 PM 30.2 °F 19.8 °F 23.0 °F 75% 29.95 in 10.0 mi South 13.8 mph - N/A   Clear
6:15 PM 32.0 °F 22.1 °F 23.0 °F 69% 29.94 in 10.0 mi South 13.8 mph - N/A   Clear
6:35 PM 30.2 °F 20.8 °F 23.0 °F 75% 29.93 in 10.0 mi South 11.5 mph - N/A   Clear
6:55 PM 30.2 °F 21.3 °F 23.0 °F 75% 29.93 in 10.0 mi South 10.4 mph - N/A   Clear
7:15 PM 28.4 °F 19.1 °F 23.0 °F 80% 29.92 in 10.0 mi South 10.4 mph - N/A   Clear
7:35 PM 30.2 °F 20.2 °F 23.0 °F 75% 29.91 in 10.0 mi South 12.7 mph 17.3 mph N/A   Clear
7:55 PM 28.4 °F 18.5 °F 23.0 °F 80% 29.90 in 10.0 mi South 11.5 mph - N/A   Clear
8:15 PM 28.4 °F 19.7 °F 23.0 °F 80% 29.89 in 10.0 mi South 9.2 mph - N/A   Clear
8:35 PM 28.4 °F 19.1 °F 24.8 °F 86% 29.89 in 10.0 mi South 10.4 mph - N/A   Clear
8:55 PM 28.4 °F 19.1 °F 24.8 °F 86% 29.88 in 10.0 mi South 10.4 mph - N/A   Clear
9:15 PM 30.2 °F 23.4 °F 24.8 °F 80% 29.88 in 10.0 mi South 6.9 mph - N/A   Clear
9:35 PM 28.4 °F 23.3 °F 24.8 °F 86% 29.88 in 10.0 mi South 4.6 mph - N/A   Clear
9:55 PM 28.4 °F 22.2 °F 24.8 °F 86% 29.87 in 10.0 mi SSE 5.8 mph - N/A   Clear
10:15 PM 24.8 °F 16.9 °F 23.0 °F 93% 29.86 in 10.0 mi SE 6.9 mph - N/A   Clear
10:35 PM 26.6 °F 19.1 °F 23.0 °F 86% 29.85 in 10.0 mi SE 6.9 mph - N/A   Clear
10:55 PM 28.4 °F 20.4 °F 24.8 °F 86% 29.84 in 10.0 mi SSE 8.1 mph - N/A   Clear
11:15 PM 28.4 °F 18.0 °F 24.8 °F 86% 29.84 in 10.0 mi South 12.7 mph - N/A   Clear
11:35 PM 30.2 °F 20.2 °F 24.8 °F 80% 29.83 in 10.0 mi South 12.7 mph - N/A   Clear
11:55 PM 32.0 °F 23.6 °F 26.6 °F 80% 29.82 in 10.0 mi South 10.4 mph - N/A   Clear